User: anonymous   Login
Location: Home
(51.5204°N, 2.5456°W)
Time: 12:47:14
(UTC+00:00)
Language:

CUTE-I - Orbit

View from above orbital plane
View from above orbital plane
View from above satellite
View from above satellite

Ground track
Ground track

The orbit data is extracted from the following two-line orbital elements,

1 27844U 03031E   19341.87862682 +.00000049 +00000-0 +42014-4 0  9995
2 27844 098.6838 347.5167 0008871 251.0444 108.9773 14.22209477852723
Epoch (UTC): 07 December 2019 21:05:13
Eccentricity: 0.0008871
inclination: 98.6838°
perigee height: 811 km
apogee height: 824 km
right ascension of ascending node: 347.5167°
argument of perigee: 251.0444°
revolutions per day: 14.22209477
mean anomaly at epoch: 108.9773°
orbit number at epoch: 85272

The dashed part of the orbit path shows where the satellite is in the earth's shadow,  

DLR